Вернуться в каталог

FENGYUN 1C DEB

АктивенPO
NORAD 31966·DEBRIS·🇨🇳 China

Запущен May 10, 1999 с Taiyuan Satellite Launch Center

Loading…

Ближайшие Пролёты (ближайшие 24 часа)

TLE

УстаревающийSource: Space-Track

Эпоха: Sep 9, 2026, 18:29 UTC

1 31966U 99025CNT 26252.77061359  .00004081  00000-0  64444-3 0  9993
2 31966  99.0367  78.8392 0082036 156.1202 204.3841 14.70776718697231

Отслеживайте FENGYUN 1C DEB в реальном времени с AllMySat

Download on the App Store